EW2889 Weather Reports


Display with metric or nautical units.
time (UTC)temp
F
wind
direction
speed
MPH
gust
MPH
rain 1hr
in
rain 24hr
in
rain mn
in
humidity
%
barometer
mb
20260505183052 82 221 0.0 0.0 0.00 0.00 0.00 40 1015.0
20260505181509 82 161 0.0 5.0 0.00 0.00 0.00 37 1015.3
20260505180036 82 1 0.0 5.0 0.00 0.00 0.00 39 1015.3
20260505174557 81 245 0.0 11.0 0.00 0.00 0.00 38 1015.3
20260505173035 82 138 2.0 13.0 0.00 0.00 0.00 41 1015.4
20260505171601 81 318 0.0 0.0 0.00 0.00 0.00 41 1015.5
20260505170018 81 290 0.0 8.0 0.00 0.00 0.00 42 1015.9
20260505164538 81 312 0.0 0.0 0.00 0.00 0.00 44 1015.9
20260505163047 80 132 0.0 0.0 0.00 0.00 0.00 44 1016.1
20260505161502 79 98 0.0 8.0 0.00 0.00 0.00 47 1016.3
20260505153051 77 281 1.0 11.0 0.00 0.00 0.00 50 1016.4
20260505151605 77 318 0.0 0.0 0.00 0.00 0.00 51 1016.5
20260505130104 68 299 0.0 0.0 0.00 0.00 0.00 64 1016.9
20260505124514 68 99 0.0 0.0 0.00 0.00 0.00 64 1016.7
20260505123056 66 94 0.0 0.0 0.00 0.00 0.00 67 1016.7
20260505121501 66 289 0.0 0.0 0.00 0.00 0.00 68 1016.7
20260505120033 65 75 0.0 0.0 0.00 0.00 0.00 70 1016.6
20260505114558 64 120 0.0 0.0 0.00 0.00 0.00 72 1016.7
20260505113016 62 138 0.0 0.0 0.00 0.00 0.00 73 1016.5
20260505111533 61 172 0.0 0.0 0.00 0.00 0.00 76 1016.5
20260505101535 57 118 0.0 0.0 0.00 0.00 0.00 80 1015.8
20260505100056 58 166 0.0 0.0 0.00 0.00 0.00 80 1015.6
20260505094519 58 194 0.0 0.0 0.00 0.00 0.00 78 1015.6
20260505093034 58 63 0.0 0.0 0.00 0.00 0.00 78 1015.4
20260505091616 59 221 0.0 0.0 0.00 0.00 0.00 77 1015.3
20260505090008 59 271 0.0 0.0 0.00 0.00 0.00 77 1015.3
20260505084536 59 252 0.0 0.0 0.00 0.00 0.00 77 1015.3
20260505083107 59 157 0.0 0.0 0.00 0.00 0.00 76 1015.3
20260505081508 60 167 0.0 0.0 0.00 0.00 0.00 75 1015.2
20260505080033 60 325 0.0 0.0 0.00 0.00 0.00 74 1015.0
20260505074536 60 285 0.0 0.0 0.00 0.00 0.00 74 1015.0
20260505073059 60 285 0.0 0.0 0.00 0.00 0.00 73 1014.8
20260505071511 61 262 0.0 0.0 0.00 0.00 0.00 73 1014.8
20260505070039 61 293 0.0 0.0 0.00 0.00 0.00 72 1014.7
20260505064543 61 224 0.0 0.0 0.00 0.00 0.00 71 1014.7
20260505063102 62 165 0.0 0.0 0.00 0.00 0.00 70 1014.8
20260505061525 62 327 0.0 0.0 0.00 0.00 0.00 69 1014.9
20260505060052 62 238 0.0 0.0 0.00 0.00 0.00 68 1014.9
20260505054545 63 273 0.0 0.0 0.00 0.00 0.00 67 1015.0
20260505053009 63 261 0.0 0.0 0.00 0.00 0.00 66 1015.1
20260505051526 63 285 0.0 0.0 0.00 0.00 0.00 66 1015.1
20260505041507 64 293 0.0 0.0 0.00 0.00 0.00 66 1015.1
20260505040021 64 173 0.0 0.0 0.00 0.00 0.00 65 1015.0
20260505034549 64 299 0.0 0.0 0.00 0.00 0.00 65 1014.9
20260505033009 65 292 0.0 0.0 0.00 0.00 0.00 64 1014.9
20260505031526 65 293 0.0 0.0 0.00 0.00 0.00 64 1015.0
20260505030056 65 250 0.0 0.0 0.00 0.00 0.00 64 1014.9
20260505024601 65 291 0.0 0.0 0.00 0.00 0.00 64 1015.0
20260505023038 66 288 0.0 0.0 0.00 0.00 0.00 65 1014.7
20260505021503 66 272 0.0 0.0 0.00 0.00 0.00 65 1014.9
20260505020033 66 304 0.0 0.0 0.00 0.00 0.00 65 1014.9
20260505014559 66 275 0.0 0.0 0.00 0.00 0.00 65 1014.7
20260505013059 67 121 0.0 0.0 0.00 0.00 0.00 65 1014.7
20260505011512 67 276 0.0 1.0 0.00 0.00 0.00 65 1014.4
20260505010051 67 99 0.0 0.0 0.00 0.00 0.00 64 1014.1
20260505004553 68 312 0.0 1.0 0.00 0.00 0.00 63 1013.9
20260505003005 68 136 0.0 2.0 0.00 0.00 0.00 62 1013.7
20260505001524 69 260 0.0 0.0 0.00 0.00 0.00 61 1013.7
20260505000037 69 117 0.0 0.0 0.00 0.00 0.00 60 1013.5
20260504234506 70 245 0.0 4.0 0.00 0.00 0.00 58 1013.3
20260504233018 71 223 1.0 11.0 0.00 0.00 0.00 57 1013.1
20260504231554 72 181 0.0 5.0 0.00 0.00 0.00 55 1013.0
20260504230012 73 308 0.0 3.0 0.00 0.00 0.00 53 1013.0
20260504224517 74 221 0.0 1.0 0.00 0.00 0.00 48 1012.8
20260504223055 76 287 0.0 4.0 0.00 0.00 0.00 43 1012.6
20260504221558 77 198 0.0 0.0 0.00 0.00 0.00 37 1012.6
20260504220007 77 297 0.0 0.0 0.00 0.00 0.00 37 1012.6
20260504214526 78 331 0.0 1.0 0.00 0.00 0.00 35 1012.7
20260504213046 79 328 0.0 1.0 0.00 0.00 0.00 34 1012.8
20260504211653 78 310 0.0 6.0 0.00 0.00 0.00 35 1012.8
20260504204520 80 60 0.0 0.0 0.00 0.00 0.00 35 1012.9
20260504203043 79 134 0.0 0.0 0.00 0.00 0.00 36 1012.9
20260504201608 79 257 0.0 0.0 0.00 0.00 0.00 36 1013.1
20260504200016 79 316 0.0 1.0 0.00 0.00 0.00 37 1013.1
20260504194532 79 196 0.0 0.0 0.00 0.00 0.00 36 1013.2
20260504193058 78 290 0.0 0.0 0.00 0.00 0.00 36 1013.4
20260504191504 78 238 0.0 0.0 0.00 0.00 0.00 36 1013.6
20260504190017 78 297 0.0 0.0 0.00 0.00 0.00 38 1013.8
20260504184546 78 294 0.0 0.0 0.00 0.00 0.00 38 1014.0